Location: Devore Heights
(34.2372°N, 117.4156°W)
Time: 02:28:28
(UTC+00:00)

SR - Pass Details

Date: 20 September 2024
Orbit: 578 x 855 km, 66.7° (Epoch: 02 October)

Event Time Altitude Azimuth Distance (km) Brightness Sun altitude
Rises 06:09:47 0° 315° (NW) 3,041 ? -48.6°
Enters shadow 06:10:22 - 313° (NW) 2,847 ? -48.7°
Reaches altitude 10° 06:12:32 10° 299° (WNW) 2,174 - -49.0°
Maximum altitude 06:16:10 21° 252° (WSW) 1,630 - -49.4°
Drops below altitude 10° 06:20:00 10° 205° (SSW) 2,300 - -49.9°
Sets 06:23:01 0° 189° (S) 3,273 - -50.2°
